Location: Kernascl�den
(48.0062°N, 3.3198°W)
Time: 22:39:34
(UTC+00:00)

NOSS 3-1 (C) - Pass Details

Date: 21 January 2021
Orbit: 723 x 1485 km, 63.3° (Epoch: 03 March)

Event Time Altitude Azimuth Distance (km) Brightness Sun altitude
Rises 18:36:10 0° 318° (NW) 3,823 7.0 -16.4°
Reaches altitude 10° 18:38:41 10° 322° (NW) 2,971 6.4 -16.8°
Maximum altitude 18:45:50 60° 42° (NE) 1,426 4.1 -18.0°
Enters shadow 18:52:05 19° 117° (ESE) 2,784 5.4 -19.0°
